RH
14 14 13 13 17 19 19 20 21 20 16 12 10 9 7 7 9 13 15 18 20 20 17 20 26 19 6 3 5 6 5 3 3 2 2 3 3 3 2 2 1 1 1 2 2 2 3 2 3 3 3 4 4 4 5 5 5 6 6 8 12 12 10 13 17 20 23 22 20 20 20 23 24 21 18 15 16 18 16 16 17 18 18 19 20 19 19 20
10 12 14 15 15 14 13 14 14 13 11 10 9 7 7 8 12 15 14 14 15 15 14 13 17 15 6 2 2 2 2 2 2 2 3 5 5 4 3 2 1 1 1 2 2 2 2 3 3 3 3 3 4 4 4 5 5 7 7 9 13 14 15 18 20 23 22 20 20 20 22 26 25 21 17 16 17 16 14 13 15 17 18 19 20 20 20 19
5 7 9 10 9 8 8 8 8 8 7 7 6 5 6 9 11 11 8 7 6 7 7 6 5 4 3 2 3 3 2 3 3 3 5 5 4 4 3 2 1 1 1 2 2 3 4 7 8 7 6 5 6 6 6 8 9 11 12 15 18 17 19 21 21 22 21 21 20 18 18 20 21 21 19 16 15 16 17 15 17 18 19 19 19 20 20 19
2 3 4 4 4 4 4 4 5 5 4 4 3 3 4 5 6 6 5 4 3 3 3 3 3 2 3 3 3 3 2 3 3 4 4 4 4 3 2 1 1 2 4 8 9 10 12 14 15 13 13 12 13 13 13 14 15 15 16 18 18 17 19 18 18 20 20 20 17 13 12 13 19 20 17 16 16 17 20 22 23 22 20 19 19 19 19 18
1 2 2 1 1 2 2 3 3 2 2 2 1 2 2 2 3 3 3 3 3 2 3 3 3 3 3 3 3 3 3 4 4 3 3 3 3 2 3 4 6 8 11 14 14 13 13 13 14 14 15 16 17 16 15 14 13 14 14 15 14 12 13 13 13 15 16 14 11 10 10 13 19 19 17 19 20 19 21 25 27 25 22 20 19 19 19 18
1 1 1 1 1 1 1 1 1 1 1 1 1 2 2 2 2 2 2 3 3 2 3 3 3 3 3 3 3 3 3 3 3 3 3 4 5 6 8 10 11 11 10 10 10 9 9 9 10 10 12 13 13 12 10 9 9 11 13 13 11 9 9 9 9 10 10 9 9 10 10 15 18 18 22 23 23 25 27 28 28 26 24 21 20 20 19 19
0 1 0 1 1 1 1 1 1 1 1 1 2 2 2 2 2 2 2 2 3 2 3 3 4 4 3 3 3 4 4 5 6 7 8 9 9 9 10 10 8 7 7 7 7 7 8 8 7 7 9 8 8 7 7 8 8 10 13 11 9 9 9 8 7 8 8 7 10 14 14 17 19 19 23 23 25 30 31 30 29 27 25 23 23 22 21 20
0 1 0 1 1 1 1 1 1 1 2 2 2 2 2 2 2 2 3 2 3 3 3 4 4 4 3 3 3 6 8 8 9 10 9 8 8 7 7 7 7 8 8 6 5 5 6 5 4 5 7 6 6 6 7 8 7 9 10 8 8 9 8 6 5 7 8 6 10 17 18 19 20 20 22 23 26 31 32 33 32 30 28 26 24 22 21 21
1 1 1 1 1 2 2 2 2 2 2 2 2 2 2 2 3 2 2 3 4 4 4 4 4 4 4 5 6 7 9 9 8 7 7 6 6 6 7 7 9 10 9 5 4 4 3 4 3 4 5 4 4 6 6 6 6 7 6 5 6 7 7 5 5 7 8 7 10 13 16 21 22 21 23 24 25 28 30 34 35 34 32 28 25 23 22 21
1 2 2 2 2 2 3 3 3 3 3 3 2 2 2 2 2 3 4 4 5 5 5 5 6 7 8 8 8 8 8 7 6 7 6 6 6 6 7 8 10 11 8 5 4 3 3 3 2 3 3 2 3 5 4 3 5 7 5 3 5 6 7 7 6 7 8 8 9 9 13 20 23 23 26 26 25 26 28 32 35 35 32 28 26 24 24 22
2 3 3 3 3 3 3 3 3 3 3 2 2 2 2 3 4 5 5 5 5 6 7 9 9 9 9 9 8 8 8 7 7 7 6 5 5 5 6 8 10 11 8 6 5 3 2 2 2 2 3 3 4 4 3 2 4 7 5 4 6 6 7 8 7 7 8 9 9 8 10 16 20 22 24 24 25 26 26 27 30 32 32 29 27 25 24 23
4 3 4 4 4 4 4 4 4 4 3 2 2 3 4 5 5 5 5 7 9 10 10 10 10 10 10 8 7 8 8 8 8 7 6 6 6 6 6 7 10 11 9 7 5 4 2 2 3 2 3 3 4 4 3 3 4 6 6 5 6 7 7 8 8 9 8 9 9 8 10 15 15 15 17 19 23 26 27 26 25 27 31 30 28 26 25 24
3 3 4 4 4 5 5 5 4 4 4 4 5 5 6 6 6 7 9 12 12 11 9 8 9 9 9 7 6 8 8 8 7 6 6 5 6 6 6 7 9 10 8 7 6 4 3 2 3 3 3 3 3 4 4 4 4 6 6 5 6 8 9 9 9 10 8 8 8 7 13 15 10 10 13 14 18 21 26 28 26 26 28 30 29 27 26 25
4 4 4 4 5 6 5 5 5 5 6 6 6 7 9 9 10 12 14 13 11 10 9 8 8 7 7 6 6 6 6 7 7 6 6 5 6 6 7 7 9 10 9 8 7 5 3 2 3 3 3 3 4 4 4 5 5 5 6 7 7 9 10 8 8 8 6 7 6 7 14 14 9 10 12 13 15 16 19 23 25 26 26 29 30 29 28 27
4 5 5 6 6 6 6 6 7 8 8 9 11 14 15 15 14 14 12 11 9 9 8 8 7 7 6 4 5 5 5 5 5 5 5 5 6 7 6 6 8 10 9 7 6 6 4 3 3 3 3 4 4 5 5 5 6 6 8 9 8 8 7 5 6 7 5 5 5 6 13 13 9 11 12 14 14 14 15 19 23 25 26 29 31 31 29 27
5 6 7 7 8 8 8 8 9 10 12 15 17 17 17 15 13 11 9 9 9 9 9 7 6 5 4 3 4 5 4 4 4 5 5 5 6 7 5 5 6 6 6 6 6 6 5 4 3 3 4 4 5 6 6 6 7 8 9 10 8 5 5 5 5 5 4 5 4 5 8 9 8 11 11 11 12 13 15 19 24 26 26 28 29 29 27 27
6 7 7 8 9 9 10 11 12 14 17 18 17 15 13 11 9 8 7 7 8 9 9 9 7 5 3 4 4 4 4 3 4 4 4 5 5 5 5 4 4 4 5 5 6 6 5 4 4 5 5 6 7 6 7 9 9 9 10 8 5 4 5 5 4 5 5 5 4 4 5 6 8 9 9 9 10 12 15 20 26 28 26 25 26 25 25 26
6 7 8 10 11 11 11 12 15 18 17 16 14 12 10 9 9 9 8 7 7 8 7 6 7 6 4 4 4 4 4 4 4 3 3 4 4 4 4 4 4 5 5 5 6 6 5 5 5 6 6 7 7 6 10 13 11 11 11 6 5 5 4 5 5 5 5 5 5 5 5 6 7 8 9 10 11 12 14 19 25 28 25 23 24 23 24 25
7 10 11 12 12 12 12 15 19 18 15 11 10 10 10 10 10 9 9 9 9 8 7 5 4 5 5 4 5 5 4 4 4 4 3 3 4 4 4 4 4 5 6 5 5 5 5 6 6 7 8 8 8 7 8 9 9 10 9 6 6 6 5 5 5 5 5 6 5 5 6 6 8 10 11 11 12 11 11 15 24 29 27 25 24 24 25 23
11 13 13 13 13 14 16 19 19 15 11 10 9 9 9 8 7 7 8 8 8 8 9 8 5 5 5 5 5 5 4 4 4 4 4 4 4 5 5 5 5 6 7 5 5 6 7 8 8 9 10 10 9 8 7 6 6 7 7 6 5 6 5 5 5 5 6 7 6 6 7 7 10 13 13 12 11 11 12 16 24 29 28 24 22 23 23 20
14 14 14 14 16 18 19 17 13 11 10 9 9 8 7 6 5 5 6 6 7 8 10 10 8 6 5 5 6 6 5 5 5 5 4 5 5 5 5 6 6 7 7 6 7 9 9 9 10 9 9 9 9 7 6 6 5 6 7 5 5 7 6 5 7 5 6 10 8 7 8 9 13 14 11 11 11 12 15 18 23 26 25 22 20 21 21 21
16 15 15 17 20 19 16 12 10 10 9 9 8 7 6 5 5 6 5 6 7 7 8 9 10 8 7 6 5 6 6 5 5 5 6 6 6 6 6 7 7 7 8 9 10 10 10 10 9 8 8 8 7 6 5 5 5 6 7 7 7 8 7 6 6 6 8 11 9 10 13 13 13 12 10 12 14 16 18 20 22 22 22 21 20 21 23 26
17 17 18 20 19 15 11 10 9 8 8 7 7 6 6 5 5 6 5 6 7 7 7 7 7 7 8 8 7 6 5 5 6 6 7 7 7 8 7 8 8 8 10 11 11 11 13 12 9 7 7 6 7 6 6 5 5 6 7 9 9 9 10 10 7 8 10 10 13 18 19 16 11 10 13 15 17 20 22 22 24 24 25 28 30 32 34 36
18 19 20 18 14 10 9 9 9 11 12 12 10 9 8 8 9 8 6 6 6 7 7 6 6 6 7 8 8 8 6 6 7 7 8 8 8 9 8 9 9 10 12 12 12 12 13 13 9 7 6 7 7 6 6 6 6 8 9 10 10 9 10 10 8 8 9 15 22 23 23 20 14 13 14 17 21 22 25 26 29 33 37 40 42 43 44 43
18 18 16 13 10 9 9 9 12 16 17 16 15 13 11 11 10 9 7 6 6 7 7 7 7 6 7 7 8 10 8 7 7 8 9 9 9 10 9 9 9 11 14 13 12 12 13 12 9 8 7 6 7 6 7 7 7 13 14 11 10 8 8 8 9 11 15 22 26 26 29 22 16 20 21 21 24 25 28 33 37 43 45 46 47 46 45 46
15 14 11 10 10 9 9 10 14 17 15 15 16 15 14 14 13 13 9 5 6 7 7 7 7 7 8 7 7 9 9 8 8 9 10 10 10 10 9 9 9 10 13 14 13 13 13 12 10 8 6 6 7 7 8 7 10 19 18 10 8 8 8 8 11 17 19 21 19 20 30 26 20 26 27 25 29 31 34 39 43 46 47 47 47 48 50 55
12 11 10 10 10 10 10 10 12 14 14 15 15 13 13 13 14 16 12 6 7 9 9 8 8 8 8 8 8 7 9 10 9 10 11 11 10 10 9 8 8 9 10 13 15 13 12 12 10 8 6 6 7 7 9 8 12 20 17 10 8 8 9 10 13 17 18 20 20 20 29 30 25 27 28 27 31 35 39 44 47 47 47 49 51 55 63 70
10 10 10 10 10 10 9 9 11 13 14 15 14 13 12 10 10 11 10 10 10 10 10 9 8 9 8 8 8 8 9 10 10 11 11 11 10 9 8 7 7 8 8 10 14 13 11 10 10 9 7 6 7 8 9 8 11 17 15 9 7 8 9 12 15 16 16 22 23 22 27 28 23 25 30 32 35 38 42 45 46 46 49 55 61 68 75 75
10 10 11 11 11 10 9 10 11 13 14 15 15 15 14 12 8 6 8 10 11 10 10 10 8 8 8 8 8 8 9 10 11 12 12 12 10 9 8 7 7 7 7 8 10 11 12 11 10 11 9 7 8 7 8 10 12 14 14 8 7 11 10 12 16 15 17 22 20 19 25 27 26 28 31 35 39 41 44 46 47 50 57 66 75 79 77 70
11 11 11 11 11 10 11 12 12 14 15 15 15 14 14 13 8 8 13 13 11 10 9 8 7 7 7 8 8 8 10 11 11 12 13 12 10 9 7 7 6 6 7 7 8 9 12 12 11 12 12 9 8 8 9 11 13 15 14 7 9 14 14 16 18 15 18 21 17 16 23 32 37 35 35 39 42 45 47 47 50 58 68 78 81 76 69 66
12 11 11 11 11 12 12 12 13 14 14 13 12 11 13 12 7 12 18 15 11 10 8 7 7 6 6 7 8 9 10 11 12 12 12 11 10 8 7 7 6 6 6 6 8 10 13 14 13 14 14 10 8 10 10 11 15 17 15 13 15 19 21 22 22 22 23 22 20 20 29 43 45 40 40 43 42 44 47 53 62 72 80 84 78 68 65 66
13 12 12 12 12 12 12 12 11 11 11 10 10 10 9 8 8 13 17 13 10 9 8 7 7 6 6 7 8 9 10 12 13 13 13 13 12 10 11 11 9 10 11 9 8 9 12 13 12 15 15 10 9 11 14 19 21 20 21 26 26 25 30 28 24 28 27 25 25 24 36 47 41 34 38 39 41 46 54 66 78 84 86 80 72 68 64 54
13 12 12 12 12 11 9 8 7 7 8 8 9 9 6 5 10 13 13 10 9 9 8 7 7 6 6 7 8 10 11 13 14 14 15 15 13 12 14 14 11 11 14 13 8 8 15 15 12 17 17 11 9 12 16 22 25 25 27 36 36 36 47 47 35 33 33 31 27 27 42 46 33 31 35 34 38 46 55 70 85 91 89 80 72 65 49 30
11 10 10 9 8 7 6 5 5 5 5 5 6 5 4 7 10 10 9 8 9 9 9 7 6 6 6 7 9 11 12 14 15 15 15 15 14 13 14 15 14 11 11 16 13 10 18 19 14 17 18 11 9 12 15 19 26 28 26 38 47 46 56 57 42 39 43 41 38 39 44 39 32 35 36 34 42 49 56 70 80 80 79 77 70 51 28 17
6 6 5 4 4 4 4 4 4 4 4 5 4 4 5 9 10 8 8 8 8 8 9 9 7 6 7 8 10 13 14 15 16 16 15 16 17 16 16 16 16 13 11 18 19 13 15 16 13 16 15 10 10 12 15 19 28 31 31 46 53 44 50 55 44 44 51 53 52 48 41 34 34 37 38 43 51 52 55 61 64 69 73 67 50 30 19 22
4 3 3 3 3 4 4 4 4 4 5 5 4 4 7 9 9 8 9 8 7 7 9 10 9 8 8 10 13 15 15 15 16 16 15 16 19 18 17 17 18 17 13 17 21 20 19 15 13 16 13 9 12 13 15 19 26 32 39 48 45 37 49 60 54 51 55 58 51 41 38 38 36 43 55 57 51 48 54 60 70 74 62 42 25 18 24 35
4 4 4 4 4 4 4 4 4 4 5 5 4 6 7 8 7 7 8 8 7 6 8 9 9 8 8 11 15 16 16 16 16 16 15 16 20 19 17 17 19 19 15 15 18 20 22 18 13 14 11 10 13 14 17 21 26 36 44 43 38 43 58 65 63 59 57 57 47 38 45 48 42 49 62 58 50 61 74 77 79 65 41 36 40 35 36 44
5 5 5 5 5 5 5 5 5 5 5 4 5 6 7 8 7 7 7 7 7 7 7 8 8 8 9 13 17 17 17 17 16 17 16 17 20 20 17 16 19 20 16 15 15 14 19 24 18 11 11 11 12 17 23 24 27 34 38 38 41 55 64 64 65 65 63 64 58 50 52 52 47 48 55 58 65 82 90 80 72 64 58 68 68 56 53 53
5 5 5 5 5 5 5 6 5 5 5 5 6 7 7 7 7 7 7 8 8 7 7 8 8 9 11 15 18 17 17 18 17 17 17 17 19 20 17 15 17 20 18 15 15 12 15 25 23 10 9 13 14 20 28 31 33 34 36 45 55 62 67 68 68 65 62 68 71 65 58 51 50 55 61 70 77 84 85 76 76 79 80 80 70 63 71 68
5 5 6 6 5 5 6 6 6 6 6 6 8 8 7 8 7 8 8 8 9 8 7 8 9 11 13 16 18 17 16 17 17 16 16 15 17 18 16 14 14 19 20 17 16 13 13 23 24 12 9 15 18 21 26 30 35 36 43 60 67 68 76 81 78 70 65 69 74 78 72 54 53 68 73 73 75 75 75 76 81 81 71 66 62 62 77 83
5 5 6 6 6 6 7 7 6 7 8 8 8 8 8 8 8 8 9 8 9 9 8 9 11 13 15 17 18 16 15 16 16 16 14 13 14 16 15 13 13 18 22 20 17 14 14 19 21 14 11 14 16 19 22 29 37 41 51 69 78 81 87 88 80 70 71 78 81 86 81 62 64 76 68 66 72 70 73 77 73 64 54 53 57 63 82 93
5 5 6 6 6 7 7 7 8 9 9 9 9 9 9 9 9 9 9 9 9 9 9 10 13 15 16 18 17 15 14 15 15 15 13 12 13 14 14 13 13 19 23 22 19 16 14 16 18 16 14 13 14 16 21 29 35 39 46 61 76 83 87 92 89 81 85 91 84 80 76 65 66 68 60 68 75 71 76 76 59 51 51 50 55 70 86 90
5 6 6 7 7 7 8 9 10 10 11 11 11 11 11 11 10 9 10 10 10 10 10 12 14 17 18 18 17 15 14 14 14 14 12 12 12 13 14 12 14 22 24 23 21 17 16 17 18 17 13 11 13 15 19 23 27 32 34 43 62 72 74 81 84 86 98 97 81 77 78 65 56 58 65 73 75 75 78 68 52 49 49 50 59 74 86 88
6 7 7 8 8 8 9 10 10 11 12 12 12 12 12 12 11 10 10 11 12 12 12 14 17 18 18 18 16 15 14 13 13 13 12 11 11 13 13 12 18 25 25 23 22 18 18 21 22 25 24 22 21 20 22 27 31 35 34 37 54 66 67 68 72 84 98 93 81 83 85 71 60 67 74 68 68 81 80 58 42 41 47 59 68 76 86 90
8 8 9 9 9 9 10 11 11 11 12 12 13 14 13 12 12 12 12 12 13 13 14 16 18 19 18 18 17 15 15 13 12 13 11 10 11 13 13 14 22 27 24 24 22 17 20 25 26 33 39 39 35 30 32 41 44 46 47 49 58 68 74 80 87 97 97 89 89 92 89 80 71 70 70 66 73 86 77 55 43 42 53 65 69 78 90 93
9 9 10 10 11 11 12 12 12 12 12 13 13 14 15 14 13 14 13 14 15 15 16 18 19 19 19 18 17 17 16 14 13 12 11 11 11 12 13 16 22 26 23 24 21 15 22 29 25 26 34 37 34 30 33 45 53 54 52 51 52 62 80 95 100 99 93 92 97 92 87 86 74 60 62 74 90 92 73 64 68 68 66 66 70 82 91 93
9 9 10 10 11 12 13 13 14 14 14 14 14 14 15 15 15 15 15 15 16 16 18 19 19 20 20 19 18 17 17 16 14 12 11 10 11 12 13 16 22 25 23 22 19 14 21 29 23 18 22 26 27 27 32 45 56 58 56 52 47 54 77 98 103 98 97 104 97 73 70 81 69 56 66 83 97 95 79 77 88 84 71 69 79 85 87 94
9 10 10 10 11 13 13 14 15 15 15 15 16 16 16 16 16 16 16 17 17 18 19 20 20 21 20 20 19 17 17 16 14 12 11 10 12 12 13 18 25 26 23 20 17 16 20 25 22 18 19 23 25 24 26 35 45 53 57 51 44 58 85 100 100 93 91 96 84 57 57 68 60 59 81 95 93 86 81 83 84 70 57 63 81 91 93 100
9 11 11 11 12 13 14 15 15 16 17 16 17 17 17 17 17 17 18 18 18 19 20 20 21 22 21 21 19 18 17 15 13 13 11 11 13 13 14 21 27 26 22 18 16 18 20 20 21 21 19 20 23 22 21 26 29 35 44 43 47 73 99 101 92 79 64 56 50 46 53 59 60 74 91 94 89 82 80 82 71 53 50 63 81 94 100 100
9 9 10 11 12 13 14 15 15 16 17 18 18 18 18 18 19 19 19 19 20 20 20 21 22 23 23 21 20 20 18 15 13 12 11 12 13 14 16 22 26 24 20 18 18 19 19 20 22 23 22 21 21 20 22 27 26 29 41 48 51 68 86 87 74 59 43 34 34 46 60 65 77 95 93 81 82 84 82 80 64 46 54 73 87 96 101 100
7 7 8 10 11 12 14 15 15 16 17 18 19 19 19 19 20 20 20 20 21 21 21 22 23 24 24 22 21 21 18 15 13 12 12 12 13 14 17 21 26 25 19 19 19 18 20 22 22 25 30 28 22 20 22 24 32 44 50 46 43 57 75 73 53 37 39 47 51 60 71 77 83 92 85 73 76 83 88 88 69 51 60 81 93 100 101 100
5 5 6 9 9 10 13 15 16 17 17 19 20 20 20 20 21 21 21 21 22 22 22 23 24 25 25 23 22 21 18 15 13 12 12 12 13 15 16 20 25 24 20 20 21 20 22 23 23 31 38 30 21 23 24 26 40 51 44 37 49 70 74 55 36 32 39 54 67 73 81 92 94 87 80 78 80 87 98 98 85 76 83 91 96 101 101 99
Wind_Speed
12 12 11 10 8 7 6 5 5 5 5 4 3 2 2 1 0 2 3 5 6 6 8 8 7 9 10 9 8 9 9 10 10 10 10 9 8 8 8 9 10 10 10 10 10 10 10 8 8 8 8 9 9 9 10 11 12 12 13 14 14 16 17 16 17 18 17 20 22 21 21 21 19 19 20 18 17 19 17 17 17 16 20 24 27 28 29 28
13 12 12 10 9 8 7 7 6 6 6 5 4 3 2 1 2 3 4 5 6 7 7 6 4 5 8 8 7 7 8 9 9 8 8 8 8 8 9 9 10 10 10 11 12 12 11 11 10 10 9 10 10 10 10 12 12 12 13 14 14 14 15 14 16 18 19 21 21 20 20 20 20 21 21 18 16 20 20 16 14 14 17 21 24 24 25 25
13 13 12 11 10 9 9 8 8 7 6 5 4 3 2 2 4 5 6 6 7 8 8 7 6 6 6 6 6 7 8 8 8 8 8 8 8 8 8 9 10 10 11 12 12 11 11 11 10 10 10 10 10 10 11 11 11 11 11 12 12 13 13 15 16 17 19 20 20 19 18 19 20 19 19 17 15 19 18 14 12 11 12 15 18 18 17 18
14 13 13 12 11 11 10 9 8 6 5 4 4 3 3 4 5 5 6 7 7 7 7 7 6 6 6 6 6 7 8 8 8 10 9 9 8 8 9 10 10 11 11 11 11 10 10 10 9 9 9 9 9 10 10 10 11 10 9 10 11 12 13 15 16 17 17 18 18 18 17 17 16 15 17 15 13 14 14 15 14 12 12 13 15 15 15 15
14 13 13 12 12 11 10 8 7 5 4 4 3 3 4 5 5 6 6 6 6 6 6 7 6 7 7 7 8 8 8 8 9 10 9 9 9 10 11 11 11 11 11 11 11 10 10 9 9 8 8 8 8 9 9 9 8 8 8 7 9 13 13 14 15 16 16 17 17 16 16 14 11 13 13 11 9 10 13 16 16 13 11 12 14 16 17 17
14 13 12 12 11 10 8 7 6 5 4 3 4 4 4 4 5 6 6 6 6 6 6 7 7 8 8 8 7 7 9 7 7 9 9 10 10 11 11 11 11 11 11 10 10 9 9 8 8 8 8 7 7 8 8 8 8 8 7 6 11 14 13 13 13 15 16 16 16 15 14 10 9 10 8 7 7 9 12 14 15 13 12 12 13 16 18 19
14 13 12 11 10 8 7 5 4 4 3 3 4 4 4 4 5 6 5 5 6 6 7 7 7 7 7 7 6 7 9 8 8 9 10 10 10 11 11 11 11 11 10 10 9 9 9 9 9 9 8 8 8 8 8 8 8 8 6 8 12 12 11 12 13 14 15 16 15 13 10 5 6 7 5 6 7 7 10 12 14 14 14 14 14 16 18 21
13 12 11 9 8 7 6 5 4 3 3 4 4 4 4 4 4 4 5 5 6 6 6 6 6 7 7 7 6 8 9 9 10 10 11 11 11 11 11 11 11 10 10 10 10 10 10 10 10 9 8 8 8 8 7 7 8 7 7 9 9 8 11 14 14 13 15 16 13 8 4 3 5 6 6 6 6 7 9 12 14 16 16 16 16 18 20 22
11 10 9 8 7 6 6 5 4 4 4 3 3 3 2 2 3 3 4 5 5 6 7 7 7 7 6 7 7 8 10 11 11 12 12 12 11 11 10 10 10 10 10 10 11 12 11 10 11 10 9 10 8 8 8 8 8 8 9 10 8 9 13 15 14 12 14 15 12 11 7 4 6 7 7 8 8 9 11 12 16 18 19 19 20 22 23 23
10 9 9 9 8 7 6 5 5 4 3 3 2 1 0 1 2 3 3 4 5 6 6 6 7 6 7 9 8 8 11 12 12 12 12 12 12 11 10 9 8 9 10 11 12 13 13 12 14 13 11 12 10 9 10 10 10 9 11 11 9 11 16 15 12 11 16 17 14 17 14 8 7 7 8 10 10 10 12 14 17 19 21 22 24 25 25 24
10 10 10 9 8 8 7 6 5 4 3 2 2 2 2 2 2 3 4 5 5 6 7 8 9 10 12 11 9 11 12 12 12 12 12 12 12 11 10 8 7 9 10 11 11 13 14 14 16 15 13 13 10 10 11 12 11 8 10 12 11 12 16 16 14 13 16 18 16 18 19 15 10 8 11 11 11 12 14 16 18 21 23 24 25 26 26 26
11 11 10 10 9 8 7 5 5 4 4 4 4 4 3 3 4 4 4 6 8 9 11 12 12 14 12 8 9 12 12 12 12 11 11 11 11 12 12 9 7 9 11 11 11 13 15 15 16 15 14 14 11 10 11 13 13 9 7 10 13 15 17 18 17 15 17 18 16 17 19 20 17 14 15 14 14 15 16 18 20 23 24 25 26 26 26 26
12 11 11 10 8 8 7 6 6 6 6 6 6 5 5 5 5 6 8 10 12 13 13 13 13 13 8 6 10 13 11 11 10 10 12 11 11 12 12 11 9 9 11 11 11 14 16 16 16 14 13 15 14 10 10 13 15 14 9 9 15 18 19 20 17 15 17 16 15 15 14 20 22 21 21 19 18 19 19 21 22 24 25 25 26 26 26 27
12 11 10 9 9 8 8 8 8 7 7 7 7 7 7 8 9 11 12 12 12 12 12 12 12 12 9 9 12 12 11 10 9 10 11 11 11 11 12 11 10 10 12 11 12 14 15 16 15 13 13 15 14 12 12 12 14 16 13 12 19 21 19 21 19 17 19 18 17 16 10 18 24 24 24 23 22 23 23 24 25 25 24 25 25 25 26 27
11 10 10 10 10 10 9 8 8 8 8 8 9 11 12 12 13 13 13 13 12 12 12 11 11 10 11 12 13 13 12 10 10 11 11 12 12 12 13 12 11 12 12 12 12 12 14 14 11 11 12 12 13 15 13 9 13 18 17 17 22 23 21 22 21 20 23 22 20 19 13 18 25 24 25 25 25 26 27 28 27 26 25 25 24 24 25 26
11 11 11 12 11 10 9 8 9 9 10 12 13 14 15 15 14 13 12 12 11 12 11 12 13 10 10 14 15 14 12 11 13 15 14 15 15 14 14 14 12 13 13 13 12 12 13 13 12 12 12 12 14 16 12 11 19 23 20 20 23 25 25 24 22 22 26 26 22 21 20 23 24 24 24 25 27 30 32 31 28 27 26 24 24 24 25 25
12 12 12 12 11 10 9 10 11 12 14 15 15 16 16 15 15 14 13 13 12 13 12 11 12 12 13 14 15 16 16 16 17 18 18 17 16 15 15 14 12 12 13 13 12 12 12 13 14 12 11 14 17 20 18 20 26 25 21 23 25 27 26 27 26 25 28 28 24 23 23 24 23 23 24 26 30 33 34 33 29 27 25 24 24 24 25 24
12 12 12 12 11 10 11 12 14 16 16 17 16 16 14 13 12 11 12 13 14 14 15 14 11 14 17 17 18 20 20 19 18 18 18 17 16 15 14 13 11 10 11 12 10 10 10 12 13 9 10 18 22 25 23 20 21 21 20 23 27 27 26 28 27 27 30 29 26 26 25 23 22 22 25 29 32 33 33 32 29 27 26 25 23 24 25 26
12 12 12 12 11 11 13 15 16 17 17 17 16 15 14 12 10 9 9 9 10 13 16 19 19 21 22 19 21 21 19 19 18 17 17 15 14 13 13 12 11 10 10 9 10 10 10 11 12 12 17 22 24 24 22 18 18 18 18 23 27 27 27 27 26 28 31 31 29 27 24 22 21 23 27 30 30 29 31 33 31 27 26 24 25 28 30 33
12 12 12 12 12 14 15 17 18 18 17 17 16 15 15 12 11 12 10 10 14 18 18 21 25 25 23 20 20 18 17 17 16 14 14 13 14 13 13 13 11 9 8 9 10 11 11 13 17 21 21 21 20 20 20 20 20 18 18 24 27 28 30 28 26 28 29 31 29 24 22 22 22 25 28 28 26 27 29 31 32 29 27 28 31 35 37 39
12 12 13 14 15 16 18 19 20 19 18 17 16 16 16 14 16 18 16 17 22 22 19 19 20 21 22 21 18 16 14 14 15 14 14 14 14 13 13 12 10 8 7 8 10 10 12 17 23 22 19 19 19 19 21 22 23 20 20 26 27 28 33 29 27 30 31 30 27 21 23 25 25 27 27 26 25 26 28 29 31 31 31 32 36 39 41 42
13 13 14 16 17 18 20 21 21 20 19 18 17 16 17 18 20 21 20 24 26 23 21 18 15 16 17 17 17 15 8 6 11 14 15 16 14 12 13 11 9 8 5 7 10 11 15 22 23 21 20 20 18 19 21 23 24 21 21 27 27 29 34 32 31 33 30 27 23 19 21 26 27 27 25 24 26 26 27 29 30 31 33 36 39 41 43 43
14 15 16 18 19 21 23 23 23 22 20 19 17 16 18 19 20 20 21 23 24 23 22 19 16 14 13 12 14 15 10 8 13 17 17 17 15 14 14 12 11 9 5 7 12 15 17 19 20 22 22 21 20 20 22 24 24 21 22 26 27 29 32 33 36 34 28 23 17 16 22 27 25 23 23 25 26 27 27 28 30 32 34 36 39 40 40 40
15 16 18 20 22 23 24 24 24 22 19 17 14 13 14 15 16 17 19 21 21 21 20 18 17 16 15 13 11 13 15 16 18 20 20 18 16 15 15 14 12 9 6 9 14 16 15 15 19 23 24 23 21 23 25 27 25 20 22 24 27 31 30 30 33 31 27 18 13 17 21 23 22 22 25 26 26 27 28 29 30 32 33 34 36 37 38 40
17 19 21 22 23 23 24 24 22 19 16 13 11 10 10 11 13 14 16 19 20 18 17 17 17 18 19 18 15 11 14 18 20 21 21 20 18 16 16 15 14 11 8 9 14 15 13 13 18 24 27 24 23 26 28 30 26 20 22 25 29 32 29 28 28 27 23 14 14 19 13 15 24 26 25 24 24 26 28 29 31 32 34 35 36 39 42 45
20 21 22 22 22 22 22 22 18 14 11 11 10 8 7 6 8 8 9 14 18 19 18 17 18 19 19 20 18 12 11 18 21 21 21 20 18 17 16 16 16 14 9 7 11 14 13 13 16 23 27 26 26 29 30 30 25 18 21 28 33 31 26 27 24 20 19 17 19 17 7 13 28 27 21 24 25 27 29 30 33 33 35 37 40 43 46 47
20 20 20 20 20 20 20 18 14 9 8 10 10 8 7 6 4 2 2 6 14 19 18 18 18 19 19 19 19 15 13 17 19 20 21 20 18 17 16 17 18 17 13 8 8 12 14 13 13 20 26 27 29 30 29 28 23 19 22 32 37 29 25 24 16 14 21 23 17 8 6 16 24 21 23 31 30 27 29 29 31 34 37 42 44 46 46 46
18 18 18 18 18 18 17 14 9 4 5 8 9 8 7 7 5 3 3 3 9 15 17 17 17 18 18 18 19 19 17 16 17 20 21 20 18 15 15 18 19 18 16 11 8 10 14 14 13 18 26 29 28 26 27 25 23 21 23 35 38 29 27 19 10 18 26 21 9 3 8 14 19 24 28 31 28 25 27 29 34 39 42 44 45 44 46 48
16 16 16 16 15 15 13 9 5 2 6 7 7 6 6 6 4 4 6 4 6 12 14 15 15 16 17 17 18 19 18 18 19 20 19 18 17 14 14 17 18 20 20 17 12 8 10 14 14 17 25 29 25 24 25 23 24 22 25 40 38 27 29 16 10 26 25 11 6 8 13 11 17 30 28 23 23 24 28 33 39 42 41 41 41 43 49 54
15 14 14 13 12 11 8 4 0 4 6 6 5 3 4 4 2 5 6 4 6 10 12 14 14 15 15 15 16 18 18 19 19 19 17 16 16 13 13 14 15 17 18 18 15 9 8 12 15 15 21 27 25 24 24 22 23 22 30 46 40 29 29 12 12 30 17 6 12 17 21 15 15 22 19 18 22 26 32 38 40 40 38 38 40 47 55 60
12 11 11 9 7 5 2 1 3 4 4 5 5 3 3 3 4 6 4 2 6 8 10 13 14 15 16 16 17 18 18 18 18 18 16 15 15 13 13 16 16 14 14 18 19 12 4 8 15 15 20 29 28 26 25 24 24 25 33 45 36 27 24 7 9 20 7 7 19 23 24 17 11 14 17 21 28 33 37 37 36 36 36 39 46 54 58 62
7 6 5 4 3 1 1 2 2 3 3 4 6 6 5 6 9 10 6 2 4 7 10 12 14 17 18 19 19 18 18 19 19 19 20 19 19 22 22 23 23 18 15 19 23 18 7 8 16 16 22 31 30 28 26 23 25 27 33 38 27 17 15 7 9 11 6 14 26 30 27 17 14 18 23 29 36 39 36 33 33 34 38 46 53 57 61 68
5 4 3 3 3 2 4 4 4 4 4 3 5 5 5 9 10 9 7 4 3 5 10 12 14 17 18 19 19 18 18 20 21 20 20 19 21 25 25 24 25 21 17 19 24 25 14 9 15 16 21 29 30 28 26 23 23 25 31 29 18 9 7 6 8 8 10 19 36 42 28 16 18 22 28 38 42 41 37 34 33 37 45 52 57 64 71 72
9 8 7 7 6 7 7 7 7 7 6 6 6 5 8 12 11 9 10 8 5 5 8 12 15 15 17 18 18 18 18 19 20 18 18 18 19 24 23 22 22 21 21 18 19 26 17 8 14 17 21 28 28 24 25 24 18 20 28 23 14 9 5 5 7 9 13 22 37 39 19 11 18 25 36 42 38 36 36 36 38 43 47 50 59 70 73 66
12 11 11 10 10 10 9 9 8 7 8 8 5 6 12 14 11 12 12 10 9 9 7 10 14 15 16 18 19 19 18 17 18 17 18 18 19 23 24 23 21 21 23 18 14 20 18 12 13 16 22 28 25 23 25 23 14 17 26 22 16 13 7 11 14 18 21 20 23 23 16 15 22 31 38 33 28 33 39 43 47 46 46 54 66 70 66 62
13 13 12 11 11 10 8 9 9 9 11 7 4 12 18 15 12 12 11 10 12 13 11 9 13 16 16 17 19 20 17 16 18 17 19 19 17 21 24 23 21 21 23 21 17 17 17 14 11 14 25 27 22 22 24 21 17 19 22 21 21 16 8 11 16 21 20 13 13 18 22 24 24 26 25 21 30 43 46 48 46 46 55 66 70 68 63 62
15 15 14 12 11 10 10 9 9 12 12 4 5 18 21 16 14 12 11 11 12 14 14 12 13 16 17 18 19 20 17 16 17 17 18 18 15 17 22 22 20 19 21 22 21 20 19 16 13 18 28 26 20 22 22 22 21 19 20 26 25 13 2 4 10 15 12 8 13 19 26 30 25 18 17 26 42 44 40 44 48 57 69 67 62 64 66 68
16 16 15 14 15 16 15 12 12 15 11 6 13 21 18 15 15 12 11 12 12 13 16 15 15 16 18 19 20 21 19 16 18 17 17 18 15 15 20 22 19 18 19 20 22 25 23 15 13 24 31 25 22 22 19 23 25 21 24 30 24 9 3 7 9 11 10 9 12 17 25 29 22 18 25 37 41 35 37 52 58 61 62 53 53 62 67 72
16 15 15 16 17 19 20 18 17 13 7 10 19 20 16 15 14 12 12 12 12 14 15 16 16 16 18 20 20 22 20 16 18 18 17 17 15 14 18 21 18 17 18 19 22 27 26 14 11 27 33 25 24 22 18 22 25 26 31 30 24 13 8 12 12 11 13 11 11 16 19 17 16 25 33 33 33 38 49 59 55 50 49 49 57 67 66 67
14 14 17 17 17 21 24 19 15 10 9 17 21 18 16 15 13 13 13 13 13 14 15 16 17 16 18 20 20 22 20 15 16 18 17 18 17 14 17 19 19 16 16 18 22 27 27 15 15 31 35 25 22 22 20 21 23 27 30 26 25 22 13 12 13 15 14 10 10 13 14 19 24 28 29 29 36 50 56 54 48 47 54 61 69 73 64 56
13 15 20 19 19 25 21 11 10 15 19 22 20 18 17 14 13 14 13 14 14 14 15 16 17 17 18 20 20 21 19 14 14 17 17 19 17 15 17 19 19 17 16 18 22 27 25 18 23 35 35 28 25 24 23 23 22 26 27 23 23 22 15 11 9 13 15 13 15 14 17 29 27 20 28 38 46 55 53 49 53 59 68 74 74 69 58 52
14 18 22 20 22 23 14 10 15 20 22 21 19 18 17 14 14 13 13 14 14 15 15 15 17 18 18 19 19 19 18 14 13 16 18 19 18 17 17 19 19 17 17 17 22 27 25 21 28 33 31 31 31 28 26 26 28 32 32 29 28 24 21 16 10 17 22 20 24 23 21 30 29 25 39 46 49 55 49 48 61 69 74 77 72 64 58 56
17 22 23 22 23 19 12 15 21 21 21 21 19 18 16 15 14 14 14 15 15 15 15 16 17 18 18 19 19 19 19 15 12 16 19 19 19 18 17 19 20 16 16 17 21 25 22 20 30 35 35 37 35 31 31 31 34 37 36 36 34 31 31 27 22 27 27 22 26 21 16 32 43 42 45 48 52 54 47 52 69 75 76 74 67 64 62 58
21 25 24 22 22 18 18 22 22 21 22 21 19 18 16 15 15 14 14 15 15 15 15 16 18 18 18 19 19 19 19 17 14 15 19 19 19 18 17 19 18 14 16 18 21 24 19 18 26 27 26 30 30 28 29 31 34 34 33 34 34 33 33 31 30 29 22 22 25 17 17 39 53 50 49 55 56 49 47 62 75 76 72 67 62 63 61 58
23 25 25 23 21 18 22 25 22 21 21 19 18 18 16 15 15 15 15 15 15 15 15 16 17 18 18 19 19 18 19 18 15 15 19 20 19 18 18 18 15 13 16 18 21 25 20 17 22 18 9 11 15 17 21 28 32 32 32 33 31 32 31 28 27 23 19 25 30 24 28 49 59 57 57 57 50 47 56 68 72 70 67 64 62 62 60 60
21 23 23 23 21 20 23 23 21 20 19 17 18 18 17 17 16 15 15 15 15 16 16 16 18 18 18 19 18 17 19 19 16 16 19 19 19 18 17 18 16 14 17 19 22 26 22 17 22 23 16 14 18 22 22 23 27 31 32 28 25 28 28 24 20 21 26 33 35 33 37 51 63 66 61 51 44 51 63 66 60 60 64 64 62 61 61 61
21 21 20 19 18 20 22 21 19 18 17 16 17 17 17 17 16 15 15 15 15 16 16 17 18 18 18 19 17 17 17 17 16 17 18 18 18 17 16 18 16 13 16 19 22 27 24 20 25 31 28 21 20 25 26 23 26 31 28 21 22 27 27 21 18 23 29 27 31 45 52 53 64 70 58 45 44 53 62 60 54 58 64 64 62 63 65 61
21 22 20 18 18 18 19 18 18 18 17 16 16 17 17 16 16 15 15 15 16 16 17 18 19 19 20 20 19 19 18 17 17 17 17 16 15 14 15 16 13 12 16 20 23 28 27 25 30 35 33 24 20 28 34 29 26 24 19 18 25 28 24 20 22 28 30 25 36 58 62 57 66 66 49 42 49 56 58 58 60 65 69 67 64 65 64 58
21 20 20 19 18 18 17 17 17 17 16 16 16 16 16 16 16 16 15 16 16 16 17 18 19 20 20 20 21 21 22 22 21 21 20 17 14 13 14 13 11 11 17 22 26 28 30 31 33 35 34 28 27 37 38 28 20 15 13 20 29 26 20 21 29 38 41 44 55 62 61 62 62 50 42 47 54 57 59 64 70 73 71 68 67 65 61 58
19 19 18 17 17 17 16 16 16 16 16 15 15 16 16 16 16 16 16 17 17 17 18 18 19 20 20 20 21 21 23 23 23 23 21 17 15 13 12 12 10 11 18 23 26 29 32 34 34 36 35 31 36 45 37 21 15 12 14 24 30 30 30 30 37 47 54 61 66 62 59 59 45 36 48 61 59 59 67 72 73 71 69 68 67 64 62 62
18 18 18 16 15 15 15 15 15 15 15 15 15 15 15 16 17 17 17 17 18 18 19 18 19 20 20 20 20 21 22 21 21 22 20 18 16 13 12 12 9 12 20 24 27 31 34 35 36 37 33 29 39 47 37 21 11 7 16 30 32 33 38 38 43 54 58 59 61 60 57 50 42 47 63 69 66 68 71 72 72 70 69 69 66 63 64 66
19 18 17 15 15 15 14 14 15 15 15 15 15 15 16 17 17 18 17 18 18 19 19 19 19 20 20 19 20 21 21 20 20 20 18 18 15 12 14 13 9 14 22 24 28 33 34 36 37 34 31 33 42 46 35 20 8 6 20 33 31 30 37 45 54 60 58 53 53 54 49 43 49 64 70 70 71 70 67 67 70 68 66 66 66 64 66 67
Wind_Direction
179 178 177 177 176 178 182 184 189 196 201 201 199 192 194 198 267 339 338 342 342 342 341 338 346 344 331 327 327 325 326 322 322 327 322 320 326 329 330 330 332 335 337 338 339 341 342 343 339 334 325 318 316 312 311 307 308 306 300 296 294 305 315 319 318 311 305 301 305 313 318 320 320 321 322 324 314 303 297 292 293 290 284 281 281 285 288 290
179 179 178 177 177 178 177 178 183 188 190 193 191 186 198 236 296 316 316 318 317 308 306 313 320 316 315 320 325 324 321 319 323 328 323 326 332 330 328 327 329 331 335 338 336 335 336 336 334 331 326 319 316 312 307 304 305 301 299 302 303 313 317 312 307 303 302 306 313 319 323 323 321 323 319 315 306 295 293 292 290 285 280 280 283 288 292 294
176 175 174 174 173 173 174 177 183 186 189 192 192 200 221 254 278 287 292 294 296 297 295 297 298 296 303 316 325 325 324 324 328 327 319 323 329 328 328 328 333 334 335 337 333 331 331 330 328 326 324 319 316 312 307 304 305 304 306 309 309 315 313 308 304 302 307 313 319 325 325 321 321 321 309 303 298 293 301 308 304 301 295 289 289 293 297 300
171 169 169 170 172 176 179 184 189 191 194 198 202 214 231 251 265 274 282 287 295 298 296 299 302 308 316 327 335 333 331 328 330 329 320 323 330 334 337 338 340 339 338 338 335 332 329 327 326 325 324 319 316 311 308 308 309 313 318 312 315 323 316 311 310 310 315 318 324 328 324 323 323 308 293 296 296 294 312 324 325 326 317 307 302 300 300 302
165 165 168 171 176 182 186 190 192 193 197 200 208 219 233 247 259 269 277 284 295 295 298 308 315 323 330 338 342 341 340 335 332 340 343 344 344 346 348 348 348 347 347 347 344 340 335 333 333 333 332 322 318 316 317 320 323 327 327 324 335 338 326 319 319 320 323 327 330 328 326 329 313 288 289 300 303 313 326 327 330 329 318 309 302 300 299 299
162 165 170 177 184 188 189 190 188 188 194 200 211 223 234 247 258 266 275 282 292 302 315 326 329 333 336 341 344 347 355 354 347 355 3 360 357 358 359 0 3 4 4 3 355 350 351 355 357 353 347 340 335 336 342 346 351 349 342 345 340 338 338 333 330 331 338 345 342 333 335 333 293 284 298 309 317 332 329 321 320 316 309 302 297 296 295 295
162 168 176 183 186 184 181 177 175 180 190 201 213 225 236 247 255 265 279 295 313 325 332 335 334 336 338 344 352 3 9 14 14 15 18 18 16 15 15 18 22 23 22 18 10 10 16 16 10 5 1 358 352 352 358 4 9 8 354 339 333 341 353 347 345 351 3 6 353 340 345 329 281 293 300 310 330 335 320 312 308 304 300 296 294 290 288 292
164 170 176 178 172 165 162 158 161 171 184 198 209 219 231 244 260 283 301 318 330 332 336 337 338 345 350 1 19 25 23 30 35 35 34 34 33 30 30 34 35 33 31 27 26 29 26 20 15 14 15 8 4 5 11 16 16 19 8 351 352 6 6 360 3 14 20 15 354 330 328 292 279 289 284 298 326 325 315 311 306 299 291 287 285 284 286 291
160 164 163 157 151 149 147 149 158 167 178 188 197 211 230 259 291 314 323 336 341 346 352 350 356 3 12 32 44 44 43 47 47 44 44 43 40 39 40 41 39 33 32 36 37 35 31 31 30 30 31 21 23 33 37 37 29 34 30 22 38 36 17 13 20 26 22 16 351 315 304 279 273 282 285 294 306 313 315 310 302 292 283 278 277 282 286 289
151 149 144 141 142 143 143 148 154 159 165 173 179 191 278 326 336 341 348 359 2 8 11 17 29 34 48 53 53 59 57 54 52 48 47 46 44 44 43 41 38 33 35 40 39 35 36 39 37 38 35 27 37 51 48 46 43 50 44 40 53 39 23 19 23 23 12 9 351 321 309 288 278 286 282 282 286 295 304 303 294 286 280 275 277 283 286 289
138 134 133 136 141 140 141 143 143 143 137 127 101 77 55 40 34 26 26 29 33 40 44 49 56 58 61 59 61 68 63 56 52 48 47 47 46 45 44 43 42 39 38 40 37 34 35 35 35 37 32 29 46 57 45 42 42 52 52 43 36 22 17 15 12 11 4 2 350 325 311 293 279 280 279 281 283 283 289 291 287 282 280 277 278 282 286 288
127 128 132 137 139 136 133 131 122 108 95 88 81 77 70 62 57 53 58 67 68 67 62 60 65 66 66 70 72 69 64 56 50 46 45 43 41 43 45 48 52 44 38 39 36 32 31 33 33 31 30 33 45 52 37 32 30 29 35 27 16 10 8 8 7 5 2 0 346 327 312 293 286 291 291 293 295 290 287 287 284 281 280 279 280 283 286 289
125 129 133 135 133 127 120 109 98 91 88 88 85 82 77 73 78 83 86 85 79 74 68 65 67 70 74 78 71 69 66 59 53 45 39 36 38 41 44 50 57 48 40 39 34 32 29 31 31 23 27 33 35 38 25 21 18 10 6 357 2 10 7 3 7 5 0 359 346 335 312 291 297 303 299 299 299 297 291 285 282 281 279 279 280 283 286 289
130 131 130 128 121 113 104 97 92 91 90 88 85 82 81 86 90 89 87 85 82 78 73 69 68 66 62 63 63 61 58 56 50 39 32 34 41 44 43 48 55 46 39 34 31 32 28 30 27 12 19 26 22 17 10 7 1 360 2 356 1 7 6 1 1 0 357 355 346 343 314 287 299 302 297 298 297 298 296 290 284 281 279 277 278 281 285 288
130 125 120 113 108 101 96 95 92 91 89 85 85 84 84 85 86 86 86 85 82 78 71 65 62 56 53 57 56 50 46 43 42 40 39 42 45 45 41 42 47 40 32 25 24 25 22 23 14 1 13 12 5 5 360 350 356 4 8 3 3 3 0 360 357 354 354 351 344 346 330 303 305 302 297 297 297 300 301 296 289 283 281 279 279 281 285 291
120 114 109 104 102 99 98 99 95 92 87 85 87 88 88 87 87 87 85 84 84 79 70 61 57 50 51 55 52 51 54 52 47 44 43 44 42 38 33 33 35 30 23 18 15 13 11 6 354 352 359 354 356 1 356 359 7 12 12 5 2 358 355 357 355 351 351 349 343 343 333 316 308 303 301 300 302 305 306 302 291 283 281 281 282 285 289 294
112 108 105 105 106 107 107 104 97 92 89 90 91 91 92 92 91 88 86 87 83 75 66 59 62 62 60 58 53 51 52 51 46 41 39 37 34 29 26 25 24 21 16 12 10 6 0 355 353 348 347 358 7 10 14 14 7 7 9 3 357 355 354 352 350 348 347 345 341 337 331 319 308 303 304 306 308 309 309 304 292 282 282 287 290 292 295 300
111 110 110 113 114 115 111 103 99 95 94 94 93 94 95 94 94 93 93 91 83 75 66 60 69 68 57 53 50 44 41 40 38 37 35 32 30 26 23 19 15 13 10 9 2 352 350 350 346 338 353 12 18 22 27 19 4 2 3 359 352 350 354 351 346 343 342 341 340 336 329 321 310 304 307 310 313 313 311 305 295 286 287 294 299 300 303 310
117 117 117 118 117 114 108 103 101 98 96 96 96 98 95 89 88 86 89 94 88 80 67 57 59 60 51 46 46 42 38 37 34 32 30 28 28 25 20 13 6 5 2 355 347 345 347 342 349 9 18 21 23 25 27 17 5 2 356 355 350 344 349 351 344 341 341 339 338 334 326 318 309 305 309 313 315 315 313 307 298 292 291 295 299 304 311 315
123 120 118 118 116 112 108 107 105 101 99 97 97 95 89 85 82 81 93 100 84 74 65 56 55 57 53 49 47 40 35 35 31 27 25 25 25 21 15 9 2 355 337 332 350 357 353 1 24 32 27 23 23 20 17 12 6 2 355 353 351 344 344 348 344 342 341 337 336 333 323 316 310 308 312 314 315 314 311 304 296 291 289 291 298 306 311 309
122 120 120 119 116 115 113 112 108 104 101 95 92 91 91 92 86 84 90 86 74 65 61 57 54 56 55 53 51 43 36 34 29 23 24 25 23 20 13 10 0 345 329 344 6 4 5 29 38 32 24 21 19 15 12 9 4 1 355 351 352 347 341 344 345 341 339 336 334 330 320 316 313 312 313 315 313 310 305 298 293 289 288 293 300 304 303 301
122 123 122 121 121 120 118 114 109 104 100 96 97 97 95 91 83 80 79 76 70 64 60 55 49 47 47 50 51 45 37 35 30 26 30 28 23 22 17 12 5 5 8 12 17 18 29 41 38 26 21 18 14 13 9 5 2 360 356 353 353 348 342 342 343 338 336 334 330 324 314 310 310 310 312 314 310 304 300 296 292 291 292 295 297 297 296 296
123 124 124 126 126 122 117 112 106 102 100 99 99 98 92 86 80 75 72 71 68 63 59 55 52 45 39 41 45 39 27 27 30 29 33 29 23 25 21 16 18 25 41 33 32 39 45 43 32 24 20 14 13 10 5 4 4 0 359 355 349 347 342 337 335 331 330 332 328 319 308 305 308 312 312 312 307 301 297 296 294 293 293 293 294 295 296 297
125 127 128 128 124 120 116 112 109 104 100 97 97 96 91 85 79 71 66 64 61 57 53 51 50 46 39 34 32 28 24 27 30 30 31 27 25 27 24 25 32 41 57 50 45 49 55 45 29 24 17 13 12 6 4 6 5 3 1 356 347 344 339 332 329 327 330 335 333 323 309 301 306 313 314 312 306 299 296 294 291 289 290 292 295 297 299 301
125 126 127 124 122 121 120 121 120 110 96 90 92 97 95 91 85 75 65 59 54 52 48 42 41 40 36 32 28 19 17 23 29 31 29 25 26 28 28 31 38 48 59 59 52 52 56 42 28 22 14 11 9 7 6 4 3 3 358 354 348 340 337 336 329 325 331 333 330 329 315 300 307 309 311 312 306 301 296 290 287 288 291 294 296 299 303 305
122 124 125 124 125 127 130 136 133 114 88 73 73 84 93 97 95 80 65 53 43 41 40 33 35 34 30 33 30 18 13 21 29 32 28 25 25 28 34 36 42 50 54 58 54 50 45 34 25 17 11 9 10 9 6 1 0 0 351 350 348 341 339 340 329 323 328 325 324 324 295 297 310 310 314 319 314 304 296 288 287 290 294 298 302 305 307 309
122 125 127 129 132 135 143 148 144 120 76 56 53 65 73 72 77 56 61 51 27 26 31 30 34 31 28 33 30 26 29 23 24 28 27 28 27 29 38 41 44 46 45 54 62 48 37 28 16 10 9 11 11 8 2 359 357 353 348 347 347 345 345 342 331 329 328 322 323 320 286 296 302 307 315 318 315 304 295 289 291 298 302 306 307 309 313 317
124 129 132 136 139 144 151 154 150 119 47 37 39 52 61 55 59 55 90 86 13 15 25 28 33 30 27 31 27 30 36 27 24 26 24 27 29 32 39 43 46 44 40 46 56 47 29 20 11 5 9 13 13 5 358 358 355 350 346 346 349 351 351 349 338 342 337 325 324 325 319 306 296 306 312 313 312 305 301 301 304 308 308 309 311 314 318 321
128 135 140 144 148 152 155 157 154 60 18 18 29 48 57 49 61 76 84 84 18 20 27 26 32 32 28 30 27 29 32 28 29 28 23 24 27 32 39 44 49 47 41 36 37 36 18 14 11 3 6 10 10 5 360 357 354 348 342 347 353 356 356 1 355 348 342 320 315 316 321 319 301 306 309 311 312 309 309 309 308 307 305 307 311 315 320 323
134 141 145 150 154 155 157 165 167 358 357 1 9 23 49 48 73 84 73 60 34 31 31 30 33 34 32 30 28 28 27 27 28 25 21 23 25 29 38 44 47 48 47 40 33 26 8 8 7 1 2 2 4 7 5 359 354 348 346 353 358 357 357 8 357 352 347 307 323 316 314 315 301 304 303 305 313 312 311 308 305 304 304 307 312 319 326 328
137 143 146 151 152 153 175 311 342 355 10 34 40 52 83 71 72 77 71 36 36 33 31 33 30 29 28 27 27 26 22 23 24 20 17 20 20 20 34 42 40 44 45 36 31 29 15 4 7 1 354 356 1 4 4 3 357 351 354 360 2 355 355 3 346 354 359 301 318 316 317 310 287 300 302 303 311 313 311 308 304 304 306 312 318 324 327 326
141 143 147 152 148 164 350 26 31 45 65 71 68 80 106 90 64 60 65 51 34 30 30 31 27 26 25 24 25 21 17 20 20 16 15 17 18 22 31 33 32 36 29 21 21 22 27 14 10 1 351 356 359 359 3 4 355 354 2 7 7 357 353 353 340 344 312 299 311 318 322 308 289 299 302 308 315 316 314 308 305 310 316 322 326 327 325 324
122 123 127 121 109 90 80 80 80 79 72 75 92 101 101 86 64 50 59 69 61 36 33 31 25 24 23 21 21 17 15 19 17 15 16 15 18 26 31 28 28 31 24 17 15 13 15 13 7 1 354 355 356 359 3 357 349 355 5 13 18 5 345 332 330 324 306 303 311 318 316 303 305 306 308 316 318 315 313 310 315 327 331 330 330 328 326 324
99 98 93 91 91 91 91 88 83 82 76 78 103 116 89 80 77 75 72 66 59 33 26 30 27 24 22 20 19 16 15 17 16 15 14 13 17 22 24 23 24 26 21 21 18 11 7 350 353 359 356 353 355 1 0 355 351 351 1 15 24 6 333 297 312 308 300 299 307 312 306 300 310 307 310 314 312 311 312 311 316 323 325 324 323 322 322 323
94 93 90 89 91 92 93 88 79 76 79 85 100 95 87 92 94 87 75 61 51 36 20 25 24 24 24 20 17 15 14 15 13 12 14 14 17 18 17 17 17 19 20 21 18 11 4 348 347 355 353 351 354 359 358 359 356 347 358 10 5 350 304 275 286 289 293 294 297 299 292 299 304 302 306 307 308 313 311 307 306 307 311 315 317 319 322 326
95 93 90 88 90 94 93 86 79 73 73 76 84 81 85 95 95 83 72 58 48 38 32 25 17 20 22 19 17 13 11 12 11 12 15 14 16 16 12 11 11 14 17 17 14 9 360 353 357 355 352 352 354 356 358 1 357 351 359 360 351 347 301 277 290 294 297 286 284 296 296 303 309 304 300 301 313 313 307 304 304 306 313 318 321 325 327 327
89 89 90 89 89 88 82 78 70 71 71 48 67 82 86 90 83 76 66 53 45 35 32 29 18 16 16 15 16 12 9 11 11 13 16 14 11 10 8 8 8 8 12 14 11 4 352 349 1 358 352 353 355 354 356 359 359 357 356 350 350 355 296 282 300 299 302 277 284 299 298 304 313 308 297 306 313 313 310 313 315 315 319 324 327 329 328 326
85 87 90 90 87 78 72 68 59 63 65 53 75 84 86 84 76 69 57 46 40 31 27 27 21 14 13 13 11 9 9 11 12 14 18 14 7 4 5 5 3 2 6 8 8 4 354 344 352 355 353 354 357 357 354 354 356 356 348 347 355 5 295 317 315 294 302 295 291 300 298 300 306 303 304 309 313 320 325 324 322 321 324 327 327 327 326 325
86 90 90 87 85 76 65 55 50 53 48 59 78 86 84 80 71 60 51 40 33 28 24 24 19 13 12 10 8 8 8 10 12 14 16 12 5 1 1 1 359 356 358 3 6 3 356 344 332 347 353 358 358 358 354 349 350 348 345 347 356 357 314 313 312 292 298 299 300 309 303 299 308 307 309 313 317 324 327 325 324 325 326 325 325 326 325 325
83 88 85 78 74 71 63 50 42 50 63 69 79 86 81 75 64 52 45 35 30 27 22 19 15 13 10 7 7 7 7 7 10 12 12 7 3 1 357 356 357 353 351 358 2 360 357 346 325 342 355 3 357 355 354 350 347 342 342 345 347 346 335 314 300 290 294 296 307 315 297 298 310 310 312 321 321 322 325 326 326 326 326 325 326 326 325 326
79 81 79 73 68 67 67 60 53 63 71 74 77 77 73 65 55 47 37 30 28 23 19 16 12 11 8 6 7 5 5 7 7 8 6 2 3 1 353 352 354 351 349 355 360 359 357 347 335 342 353 357 351 352 354 351 345 338 339 340 338 342 342 326 304 296 295 286 293 299 292 299 307 312 319 322 321 322 325 325 325 327 327 326 327 329 329 329
78 77 74 70 68 66 63 69 69 66 70 73 70 68 63 54 48 42 31 28 24 18 17 13 8 9 6 6 6 4 6 6 5 4 1 359 360 357 352 352 352 349 349 355 359 358 355 349 343 342 348 353 354 355 354 350 345 340 339 339 337 338 336 327 311 304 302 293 291 292 289 294 298 311 319 320 321 323 324 325 327 327 326 327 330 332 333 333
79 77 73 68 69 71 72 73 71 68 67 66 63 59 54 47 43 36 29 25 19 16 14 8 7 6 3 3 4 5 7 5 3 360 357 356 355 353 351 350 349 348 351 356 357 357 358 354 348 344 347 353 353 351 351 348 344 339 335 334 332 327 324 319 309 303 297 291 297 298 284 288 300 313 320 321 323 323 323 326 328 327 327 329 332 334 334 335
79 79 77 72 72 75 76 71 66 63 62 60 57 53 49 44 38 32 28 22 16 15 10 5 6 3 2 2 2 4 6 4 1 355 353 354 352 351 352 349 348 348 351 356 358 357 0 0 355 350 348 351 349 347 346 339 334 330 326 326 322 316 316 315 312 305 288 284 299 301 281 292 305 316 320 323 324 321 323 328 329 329 329 330 332 335 335 335
78 79 78 75 72 68 68 66 61 57 56 54 52 49 44 40 35 29 25 19 15 12 7 5 4 1 1 1 359 1 2 2 1 353 351 353 350 350 351 349 348 347 350 356 357 357 360 0 1 358 340 332 328 325 327 322 317 317 319 319 315 313 313 312 310 301 287 297 302 290 285 297 309 318 321 325 325 320 324 329 330 331 331 330 332 334 335 336
76 77 76 74 69 61 62 64 60 54 51 47 46 44 40 36 31 26 22 17 13 9 5 3 1 1 0 359 358 359 356 356 357 352 352 351 347 348 349 347 346 345 351 355 353 356 359 354 354 351 333 315 308 310 319 315 308 311 316 317 317 316 313 308 301 294 300 307 298 290 298 305 312 320 324 327 326 322 326 330 328 329 330 331 332 333 336 339
74 72 71 71 67 59 57 59 57 52 47 42 40 39 36 31 26 22 18 14 10 6 2 1 0 358 356 356 357 357 354 354 353 352 353 349 344 344 343 344 342 341 350 353 350 354 357 351 348 347 343 337 326 326 331 322 311 314 316 317 325 325 317 308 297 299 309 307 296 307 316 312 313 321 325 326 327 325 326 328 326 326 328 330 332 335 338 338
71 69 66 65 63 59 54 52 50 46 41 36 34 33 29 25 21 18 14 11 7 3 360 360 359 355 353 354 354 353 353 353 353 354 353 349 345 342 341 343 340 340 350 351 349 353 356 351 346 346 349 351 342 342 343 333 321 319 313 319 331 330 321 313 311 316 320 311 306 317 320 314 315 321 323 325 328 326 325 326 327 328 331 334 335 337 338 334
66 65 62 59 57 54 49 45 42 40 35 29 27 26 22 18 16 12 9 7 4 2 360 359 357 355 352 352 351 351 352 351 351 352 352 351 348 344 345 346 341 344 350 349 349 354 355 350 346 346 351 355 351 349 349 342 334 332 320 330 338 334 322 321 322 324 326 320 317 320 318 314 318 321 320 323 327 326 326 328 330 332 335 337 339 339 335 330
59 58 57 53 49 48 44 40 36 34 29 23 21 19 16 13 11 8 6 4 1 0 359 357 357 354 351 350 350 350 351 350 348 347 348 349 348 346 351 351 342 344 348 347 350 354 353 350 348 347 349 356 355 352 354 352 341 337 331 337 342 334 325 327 328 326 326 324 322 321 317 316 319 319 320 325 327 327 329 331 332 334 337 339 340 337 332 330
50 49 50 46 42 42 39 35 32 29 24 19 15 13 10 8 6 4 3 1 359 358 357 355 355 354 351 349 349 349 349 347 346 345 344 345 344 346 351 348 339 340 344 347 350 353 353 352 352 350 349 353 353 353 358 360 340 324 340 341 338 328 321 325 330 329 327 324 321 320 319 320 323 323 324 327 330 330 330 330 332 335 339 340 339 333 330 332
43 40 41 38 36 36 35 31 28 24 19 15 11 7 6 5 3 2 1 360 358 357 356 354 354 353 352 349 348 349 347 345 346 345 343 343 342 343 346 342 338 341 344 350 352 352 354 354 355 354 347 347 352 354 358 3 356 340 340 333 324 320 320 322 326 327 326 324 320 318 319 321 324 326 327 328 329 328 327 327 329 332 336 337 334 332 332 333